Starlink 34931

operational
NORAD ID: 65398 Int'l Des: 2025-191 Owner: SPXS Country: US Constellation: starlink
LEOCIRCULARRETROGRADE

关于 Starlink 34931

正在加载描述...

实时位置

正在加载3D地球...

即将过境

高度历史

Altitude vs Time

uPlot chart will show altitude changes over time

两行轨道根数

1 65398U 25191V 25278.50001156 .00088851 00000-0 22585-2 0 9995
2 65398 97.6030 148.1510 0001865 80.3434 211.9913 15.39282068 6095
Epoch: Oct 5, 2025 • Age: 17 hours

当前状态

高度 474.3 km
速度 7.63 km/s
星下点 -66.34°S, 138.37°W
发射日期 Aug 30, 2025
运行时间 36 days
类型 internet

技术详情

分类 Payload
质量 575.00 kg
干质量 530.00 kg
总质量 575.00 kg
长度 0.30 m
直径 4.10 m
跨度 29.00 m
形状 Box + pan
制造商 SPXS
平台类型 Starlink V2MO
阶段状态 In Orbit
所有者/国家 SPXS/US

大型星座

Loading constellations...